Wind_Speed
27 25 30 31 24 31 22 23 4 7 17 15 5 5 9 11 5 22 9 2 4 10 6 6 9 11 7 14 12 12 6 4 4 7 2 3 3 6 7 5 5 2 3 7
26 30 31 37 31 31 32 8 13 8 26 9 11 6 11 17 14 10 12 10 7 2 3 4 5 6 2 6 9 11 8 5 2 2 3 1 5 5 4 5 3 7 5 7
29 30 33 37 33 34 27 10 4 9 16 11 5 18 10 11 14 10 18 4 9 5 4 4 5 4 3 1 9 8 15 5 11 15 6 5 6 7 7 6 3 5 10 9
31 30 29 35 32 25 31 8 5 9 6 8 14 6 7 17 15 16 17 5 11 5 6 4 5 5 2 1 3 2 6 6 5 1 2 5 4 7 11 10 15 8 13 12
29 27 25 25 29 29 25 6 5 3 2 4 15 10 15 13 13 8 12 11 8 12 11 8 4 2 6 5 5 4 3 4 4 3 2 1 4 4 11 10 2 6 5 12
23 24 21 25 28 28 24 13 12 7 10 4 7 14 17 23 12 7 17 7 5 9 14 20 21 18 17 11 2 1 4 7 6 6 3 3 7 9 9 5 4 6 8 12
20 24 22 24 24 29 32 13 7 7 3 6 11 11 21 20 9 18 3 14 8 10 10 8 5 4 10 12 17 10 3 4 3 3 3 7 3 2 5 10 5 7 1 1
20 20 22 22 23 26 32 31 14 5 3 8 5 8 7 12 18 15 8 23 16 10 8 3 2 1 3 3 4 8 5 4 0 2 8 6 9 5 6 7 7 6 6 7
21 21 20 20 22 24 28 32 28 14 1 4 4 2 12 7 7 4 18 17 16 12 3 3 6 6 4 5 2 6 7 6 6 2 4 9 3 2 3 4 5 8 13 14
20 21 21 19 21 24 27 26 28 15 4 7 8 4 5 10 9 3 5 15 11 18 3 4 4 4 4 7 10 7 5 4 13 10 2 6 5 3 8 5 6 13 22 24
18 18 19 21 21 22 23 24 20 22 6 17 17 14 11 10 7 4 5 6 5 3 8 4 3 3 5 5 5 6 5 6 3 3 4 9 7 5 7 4 9 19 23 25
18 19 17 17 20 19 20 21 20 20 18 11 11 18 27 23 21 4 2 5 5 9 3 3 3 2 2 5 2 2 3 6 6 8 6 1 2 2 5 17 24 20 25 22
19 17 20 18 17 16 18 19 16 15 20 20 22 22 26 21 25 27 9 8 9 12 11 4 2 3 4 5 5 3 2 3 4 4 3 1 4 9 17 18 25 23 21 21
19 19 20 21 20 18 18 18 19 17 7 5 12 12 18 20 19 27 30 29 28 15 17 4 3 3 4 3 3 3 5 10 6 3 1 7 8 14 21 21 22 22 20 19
20 20 19 21 22 18 17 18 19 22 10 2 6 11 22 24 25 26 23 28 35 16 4 2 3 3 4 1 2 2 6 6 5 5 18 6 12 23 23 25 23 22 23 24
21 20 20 21 19 16 15 8 19 26 16 6 3 6 12 15 23 28 31 23 21 11 6 1 3 3 4 3 3 2 11 12 12 6 24 9 27 26 24 23 22 22 18 19
26 23 22 20 19 22 24 7 2 19 14 2 3 3 5 4 6 10 10 21 10 6 5 4 4 3 6 2 3 6 11 11 13 21 27 21 30 24 24 22 24 21 19 18
29 25 20 21 18 18 25 33 16 18 18 5 3 3 4 3 2 4 6 6 7 3 6 4 2 5 2 2 2 14 16 21 25 27 13 26 28 28 25 22 23 23 20 17
32 32 23 18 16 14 26 23 17 21 9 4 3 1 2 3 3 5 5 3 3 1 2 1 2 1 2 4 14 23 28 17 23 15 16 25 29 30 27 25 25 21 19 17
32 36 20 7 16 7 16 8 6 13 8 6 2 1 2 1 1 3 3 4 1 2 1 3 2 2 4 5 19 25 19 25 26 28 21 28 31 31 29 27 23 17 15 16
37 11 9 11 19 10 6 4 4 3 3 7 5 4 1 2 2 2 4 2 1 2 2 3 0 2 3 15 22 26 21 23 19 10 16 23 27 30 29 25 20 16 15 14
25 14 21 22 7 3 3 2 2 3 3 5 4 7 5 4 2 3 4 2 2 2 1 3 2 3 13 27 28 22 23 22 15 12 19 20 23 24 23 21 19 17 14 12
32 10 6 5 2 3 5 5 3 2 4 8 8 3 4 3 6 5 3 4 1 1 3 3 4 5 23 29 31 25 24 22 17 19 20 19 20 20 17 18 16 14 13 12
3 5 3 3 4 4 5 4 4 5 8 16 19 7 3 2 3 0 4 2 2 2 1 5 3 15 28 30 30 28 27 22 19 20 21 20 20 19 16 13 13 13 13 13
2 2 3 4 3 3 2 2 6 7 27 23 13 7 4 3 3 2 3 2 2 4 4 3 5 23 31 31 31 29 28 24 20 20 20 20 19 18 17 15 14 13 13 13
2 4 2 1 3 3 2 8 16 18 30 20 9 3 3 2 3 2 4 5 5 4 3 3 16 26 30 32 30 27 24 22 20 19 19 19 18 16 15 15 14 12 11 12
3 2 4 2 5 3 2 12 17 29 18 2 2 4 4 3 2 2 3 4 3 6 6 12 22 30 31 29 26 24 22 21 20 19 19 18 17 15 15 15 14 13 13 12
Wind_Direction
255 254 239 231 227 229 218 210 191 216 191 192 242 191 201 203 247 235 255 200 260 244 193 213 205 214 224 208 150 188 178 141 164 199 272 191 157 179 158 150 204 222 157 269
249 245 238 232 221 224 217 212 199 198 197 210 217 249 230 226 236 229 224 228 222 355 229 231 222 212 210 179 160 170 178 172 156 331 346 31 209 187 129 117 97 191 146 260
244 242 234 216 218 222 212 192 177 207 220 222 205 218 218 214 234 253 207 240 250 258 237 268 290 267 345 244 200 205 153 150 206 224 210 149 190 190 175 149 131 187 230 263
242 238 228 209 217 215 216 224 208 187 181 223 213 224 213 214 223 213 216 215 207 221 227 209 217 273 272 17 5 81 118 194 192 324 230 170 211 182 176 192 218 190 252 220
234 233 216 215 220 220 206 205 178 142 155 172 206 212 221 206 218 203 217 231 221 197 213 203 215 99 11 348 8 43 358 194 53 237 214 320 265 190 193 214 178 242 260 259
235 231 215 222 219 218 211 220 223 167 201 169 180 218 230 221 216 240 238 222 227 240 230 217 233 229 206 195 212 1 175 144 172 229 113 220 279 206 196 196 195 181 215 243
235 222 215 222 218 220 223 229 186 184 227 193 204 199 219 234 226 236 199 215 235 261 277 222 235 271 286 234 251 181 155 107 181 161 139 228 255 258 214 207 215 210 222 154
228 227 226 224 218 217 222 227 233 210 203 204 240 230 222 240 229 244 226 250 263 229 167 81 85 327 30 280 259 195 178 129 104 155 220 304 286 188 166 172 251 183 153 111
229 227 228 223 219 216 221 225 235 267 22 244 189 191 231 221 204 202 242 235 224 176 121 178 191 197 163 201 151 225 183 192 207 155 202 217 249 240 154 100 272 179 142 155
232 230 230 224 219 215 217 231 229 237 208 297 207 188 220 206 203 208 186 200 188 199 207 184 205 193 175 179 167 180 165 127 201 207 224 292 246 212 136 152 243 156 166 161
226 229 226 224 218 215 217 229 229 221 238 249 253 269 243 267 283 217 169 148 171 167 205 185 195 187 196 191 179 163 145 143 173 86 188 253 187 134 170 177 140 168 167 158
222 218 217 212 210 209 211 218 224 230 237 257 274 255 248 250 237 203 0 304 155 176 182 193 141 185 153 148 211 36 182 176 173 173 206 224 177 232 174 165 159 162 157 162
222 226 220 213 208 207 212 226 229 233 236 257 251 247 250 248 245 251 229 278 246 208 193 172 201 186 158 155 215 128 231 157 123 122 234 177 181 165 163 165 155 154 158 162
229 224 221 217 216 219 230 239 231 223 227 220 267 261 245 256 236 232 245 260 243 264 196 150 206 193 190 180 128 154 205 146 130 99 68 115 169 166 152 151 148 146 151 162
226 219 218 217 217 221 229 248 254 226 251 262 284 284 277 259 237 234 247 247 234 233 187 175 209 133 116 129 118 197 194 158 155 210 191 153 172 162 159 153 155 159 155 157
221 220 212 209 211 206 210 265 254 233 218 240 273 247 246 261 241 234 235 246 189 174 142 212 247 159 118 141 185 200 176 182 167 162 172 157 161 160 164 158 157 156 161 165
214 211 214 215 202 198 192 203 320 202 210 236 256 251 240 239 158 182 164 183 155 131 115 184 203 136 142 131 177 158 169 158 151 144 140 122 155 161 166 159 157 160 159 158
208 218 215 200 197 210 227 239 300 197 195 271 275 277 320 63 198 108 114 110 125 123 154 163 163 132 194 123 159 135 145 141 137 149 168 164 163 160 162 166 163 162 161 163
218 209 177 172 190 213 230 244 184 176 205 205 226 262 287 56 26 83 82 122 66 51 88 73 76 13 215 195 152 154 155 150 148 145 145 155 161 163 166 169 169 171 168 172
151 146 155 180 199 205 216 230 159 196 210 220 239 226 270 171 347 53 111 45 103 103 301 115 79 219 251 201 175 161 157 153 151 136 135 157 163 167 170 177 177 181 183 177
146 142 161 167 162 147 175 231 210 185 208 202 174 194 185 77 90 128 34 155 11 98 188 126 142 269 218 167 166 163 159 159 166 175 177 176 177 174 174 177 181 183 183 188
149 142 136 136 160 155 183 231 284 229 218 169 151 152 125 71 36 87 11 96 40 128 131 83 245 241 178 169 167 163 162 160 156 160 164 172 179 179 178 180 182 185 192 195
124 129 138 155 143 80 187 200 212 242 183 177 165 105 88 86 35 66 69 67 195 109 52 230 221 172 171 173 167 163 166 165 157 155 162 165 175 178 184 183 188 194 197 202
123 126 129 173 184 226 196 197 189 198 164 148 129 77 89 63 53 81 81 273 57 46 293 235 222 179 173 173 172 167 167 170 165 161 165 168 174 177 180 190 199 201 202 201
139 166 166 208 219 222 266 209 148 140 146 133 103 59 73 24 86 22 98 97 261 214 231 238 194 176 173 173 173 174 172 174 173 173 175 177 180 184 186 190 195 197 201 202
106 64 111 214 188 185 176 143 132 142 137 125 89 102 88 230 131 89 202 164 223 251 234 264 170 171 173 173 175 176 178 180 179 178 181 183 187 192 194 194 195 200 205 205
56 38 61 93 70 95 121 152 145 150 139 106 120 111 189 108 88 222 190 208 232 312 306 177 175 171 172 173 173 175 176 175 176 178 181 184 186 194 196 199 199 198 195 194
Height
1431 1434 1439 1444 1448 1453 1453 1454 1454 1454 1458 1465 1457 1456 1458 1461 1458 1462 1464 1463 1462 1459 1459 1460 1462 1458 1455 1451 1454 1463 1464 1476 1488 1485 1480 1481 1484 1489 1493 1507 1510 1525 1530 1498
1424 1427 1431 1438 1442 1446 1448 1445 1449 1450 1454 1451 1451 1452 1452 1454 1455 1455 1458 1462 1459 1456 1457 1464 1455 1452 1449 1449 1451 1457 1460 1475 1489 1484 1486 1484 1484 1485 1489 1497 1507 1507 1523 1492
1417 1421 1423 1428 1434 1438 1438 1442 1443 1447 1447 1445 1448 1449 1450 1453 1453 1454 1457 1457 1459 1458 1457 1458 1458 1452 1451 1448 1448 1449 1450 1470 1467 1468 1466 1473 1479 1479 1483 1484 1507 1497 1487 1482
1411 1413 1415 1419 1426 1430 1436 1432 1432 1433 1436 1442 1443 1446 1442 1445 1448 1450 1450 1452 1455 1458 1456 1462 1465 1461 1455 1450 1450 1449 1455 1467 1466 1463 1463 1466 1467 1470 1478 1477 1471 1483 1470 1481
1404 1406 1409 1412 1418 1426 1425 1426 1426 1429 1433 1436 1440 1441 1444 1444 1442 1446 1445 1448 1450 1452 1455 1458 1460 1463 1461 1459 1452 1455 1458 1469 1464 1468 1467 1466 1469 1469 1473 1470 1472 1476 1476 1473
1400 1401 1404 1411 1416 1420 1420 1421 1424 1427 1430 1433 1437 1436 1434 1434 1440 1441 1440 1443 1448 1449 1447 1450 1449 1448 1449 1459 1461 1463 1463 1465 1467 1460 1464 1468 1468 1466 1466 1465 1465 1465 1472 1461
1396 1398 1403 1408 1412 1415 1418 1421 1422 1425 1428 1427 1428 1429 1432 1433 1436 1439 1440 1443 1445 1443 1444 1444 1445 1449 1452 1451 1453 1456 1460 1459 1467 1462 1468 1468 1450 1452 1454 1457 1458 1460 1458 1461
1394 1397 1400 1404 1408 1412 1415 1418 1419 1422 1422 1422 1424 1425 1428 1429 1434 1436 1439 1441 1441 1442 1444 1450 1453 1454 1453 1452 1449 1453 1455 1457 1467 1472 1467 1456 1449 1452 1455 1454 1454 1456 1458 1464
1390 1394 1397 1400 1405 1409 1412 1415 1418 1418 1420 1421 1421 1423 1425 1428 1430 1436 1434 1438 1439 1441 1445 1449 1444 1445 1442 1451 1452 1451 1452 1458 1465 1471 1468 1469 1448 1445 1446 1449 1459 1449 1453 1462
1386 1389 1393 1396 1401 1406 1409 1411 1415 1420 1418 1419 1419 1421 1422 1425 1426 1426 1427 1430 1436 1440 1440 1439 1438 1438 1437 1442 1442 1454 1449 1454 1452 1453 1467 1458 1446 1444 1445 1456 1458 1447 1454 1456
1384 1386 1390 1394 1397 1401 1405 1407 1411 1416 1416 1415 1418 1419 1420 1421 1425 1424 1422 1427 1427 1433 1433 1433 1433 1432 1435 1436 1432 1429 1439 1450 1458 1459 1465 1463 1441 1444 1447 1444 1446 1450 1453 1455
1381 1384 1387 1390 1394 1398 1402 1406 1410 1414 1415 1412 1412 1412 1414 1417 1418 1420 1420 1419 1418 1421 1425 1428 1427 1430 1431 1430 1433 1432 1435 1435 1446 1447 1446 1440 1437 1440 1438 1442 1444 1450 1451 1456
1377 1381 1384 1388 1392 1396 1400 1402 1407 1411 1411 1410 1407 1405 1408 1410 1411 1412 1419 1418 1419 1413 1413 1417 1419 1417 1421 1426 1427 1428 1431 1431 1438 1438 1439 1437 1439 1440 1441 1442 1444 1448 1452 1457
1373 1377 1382 1386 1390 1393 1396 1399 1403 1407 1406 1406 1399 1396 1397 1399 1402 1404 1405 1412 1415 1414 1410 1410 1415 1412 1408 1415 1414 1422 1424 1426 1432 1439 1440 1440 1440 1439 1440 1444 1447 1450 1455 1460
1370 1374 1379 1383 1387 1392 1395 1396 1399 1402 1403 1398 1394 1393 1392 1393 1395 1396 1400 1401 1403 1406 1406 1407 1405 1403 1407 1415 1416 1421 1415 1419 1428 1431 1424 1429 1433 1438 1441 1443 1447 1452 1455 1462
1366 1372 1377 1381 1385 1391 1395 1398 1393 1394 1398 1400 1397 1390 1385 1384 1384 1384 1386 1393 1392 1395 1397 1402 1401 1399 1401 1412 1412 1406 1408 1410 1412 1414 1421 1425 1430 1437 1441 1445 1450 1455 1459 1463
1364 1370 1375 1380 1384 1387 1390 1391 1390 1391 1395 1395 1393 1385 1382 1380 1376 1377 1377 1383 1385 1388 1393 1398 1400 1398 1399 1405 1405 1402 1406 1409 1412 1413 1419 1431 1432 1436 1442 1447 1451 1456 1460 1464
1361 1368 1373 1380 1385 1389 1389 1384 1385 1389 1395 1394 1389 1380 1377 1374 1375 1374 1377 1380 1386 1391 1394 1397 1397 1399 1400 1404 1402 1400 1406 1410 1412 1416 1419 1422 1430 1437 1442 1448 1452 1456 1460 1463
1356 1363 1376 1383 1386 1385 1381 1384 1385 1389 1393 1389 1387 1382 1375 1373 1374 1376 1380 1382 1388 1390 1392 1393 1394 1399 1400 1396 1397 1402 1405 1407 1413 1419 1421 1425 1429 1436 1441 1447 1452 1455 1458 1461
1353 1365 1375 1379 1378 1383 1385 1384 1382 1386 1386 1385 1383 1380 1378 1378 1376 1379 1381 1382 1390 1394 1395 1394 1397 1398 1395 1394 1397 1400 1405 1407 1413 1417 1425 1428 1432 1436 1441 1446 1450 1454 1457 1460
1357 1365 1371 1375 1380 1383 1386 1384 1384 1379 1381 1377 1378 1378 1378 1380 1379 1381 1383 1389 1392 1395 1394 1395 1398 1396 1392 1394 1397 1403 1406 1410 1415 1418 1420 1424 1428 1433 1440 1446 1450 1454 1457 1459
1356 1359 1367 1375 1379 1381 1383 1382 1379 1376 1371 1372 1373 1375 1377 1380 1378 1379 1386 1390 1394 1392 1395 1400 1401 1390 1388 1392 1398 1403 1408 1412 1416 1419 1422 1426 1431 1436 1440 1445 1449 1452 1456 1458
1357 1363 1368 1370 1375 1382 1379 1382 1375 1376 1367 1368 1370 1375 1378 1381 1381 1385 1388 1394 1401 1395 1404 1393 1387 1384 1387 1391 1397 1403 1409 1414 1417 1420 1424 1428 1433 1438 1442 1445 1448 1452 1455 1458
1356 1358 1368 1369 1372 1368 1364 1362 1361 1360 1361 1365 1368 1373 1378 1382 1385 1390 1394 1398 1396 1406 1403 1386 1381 1381 1385 1391 1397 1402 1408 1414 1417 1421 1425 1429 1434 1438 1442 1445 1448 1451 1453 1456
1357 1358 1365 1365 1360 1360 1359 1359 1360 1360 1363 1366 1372 1378 1382 1386 1390 1392 1395 1397 1402 1393 1388 1383 1376 1380 1385 1391 1397 1403 1408 1413 1418 1422 1425 1429 1433 1437 1440 1444 1447 1450 1452 1454
1356 1358 1360 1359 1360 1360 1360 1359 1360 1362 1364 1369 1374 1382 1389 1390 1391 1394 1395 1394 1391 1388 1381 1378 1378 1382 1387 1392 1398 1404 1409 1414 1419 1423 1427 1431 1434 1438 1441 1444 1447 1449 1452 1454
1357 1360 1360 1360 1359 1359 1359 1360 1362 1365 1368 1374 1377 1384 1382 1387 1391 1392 1388 1390 1385 1381 1380 1379 1380 1383 1388 1395 1401 1406 1411 1415 1419 1423 1427 1431 1435 1438 1441 1443 1446 1448 1450 1452